Regional Weather Roundup
Issued by NWS

Home | Current Version | Previous Version | Text Only | Print | Product List | Glossary Off
Versions: 1 2 3 4 5 6 7 8 9 10 11 12 13 14 15 16 17 18 19 20 21 22 23 24 25 26 27 28 29 30 31 32 33 34 35 36 37 38 39 40 41 42 43 44 45 46 47 48 49 50

000
ASUS45 KPSR 270910
RWRAZ

ARIZONA REGIONAL HOURLY WEATHER ROUNDUP
NATIONAL WEATHER SERVICE PHOENIX AZ
200 AM MST THU NOV 27 2014

NOTE: FAIR INDICATES FEW OR NO CLOUDS BELOW 12,000 FEET WITH NO
SIGNIFICANT WEATHER AND/OR OBSTRUCTIONS TO VISIBILITY.

AZZ001>003-036-271000-
NORTHWEST ARIZONA

CITY           SKY/WX    TMP DP  RH WIND       PRES   REMARKS
BULLHEAD CITY  CLEAR     64  18  16 N14       30.23S
KINGMAN        CLEAR     42  17  36 CALM      30.33F
$$

AZZ004>008-015-016-018-271000-
NORTH CENTRAL ARIZONA

CITY           SKY/WX    TMP DP  RH WIND       PRES   REMARKS
GRAND CANYON   PTCLDY    21   8  57 NE7       30.48F WCI  12
PRESCOTT       PTCLDY    34  17  50 S8        30.40F WCI  27
FLAGSTAFF      PTCLDY    25  12  58 E6        30.48S WCI  18
PAYSON         CLEAR     50  12  22 CALM      30.39R
PAGE           CLEAR     41  16  36 SW5       30.42S
$$

AZZ009>014-017-271000-
NORTHEAST ARIZONA

CITY           SKY/WX    TMP DP  RH WIND       PRES   REMARKS
WINSLOW        MOCLDY    26  11  52 SE5       30.46S WCI  20
SAINT JOHNS    PTCLDY    27  16  63 SW3       30.46S
SHOW LOW       PTCLDY    32  14  47 NE6       30.48S WCI  26
$$

AZZ023-271000-
GREATER PHOENIX AREA

CITY           SKY/WX    TMP DP  RH WIND       PRES   REMARKS
PHOENIX        CLEAR     52  28  39 CALM      30.17F
BUCKEYE          N/A     46  16  29 N5        30.19S
LUKE AFB       CLEAR     50  23  35 N6        30.18S
DEER VALLEY    CLEAR     55  20  25 CALM      30.18S
SCOTTSDALE     CLEAR     50  27  40 W3        30.20S
MESA-GATEWAY   CLEAR     43  21  42 CALM      30.21R
$$

AZZ027-028-271000-
SOUTHWEST MARICOPA COUNTY AND PINAL COUNTY

CITY           SKY/WX    TMP DP  RH WIND       PRES   REMARKS
CASA GRANDE    CLEAR     46  16  29 CALM      30.20S
$$

AZZ503-504-507>509-271000-
SOUTHEAST ARIZONA

CITY           SKY/WX    TMP DP  RH WIND       PRES   REMARKS
TUCSON         CLEAR     45  15  30 S6        30.25F
DAVIS-MONTHAN  CLEAR     47  17  30 CALM      30.23F
NOGALES        CLEAR     46  18  32 CALM      30.26S
SIERRA VISTA   CLEAR     48  20  32 SE5       30.32S
DOUGLAS        CLEAR     37  18  46 CALM      30.32R
SAFFORD        CLEAR     40  13  33 SE7       30.31R
$$

AZZ020-021-025-026-031-271000-
SOUTHWEST ARIZONA

CITY           SKY/WX    TMP DP  RH WIND       PRES   REMARKS
YUMA           CLEAR     57  23  26 CALM      30.15F
$$

CAZ031-033-041-043-047-048-061-271000-
SOUTHERN CALIFORNIA

CITY           SKY/WX    TMP DP  RH WIND       PRES   REMARKS
DOWNTOWN L.A.  CLEAR     62  26  25 CALM      30.11F
L.A. AIRPORT   CLEAR     63  30  28 CALM      30.11F
SAN DIEGO      CLEAR     59  34  39 CALM      30.11F
BURBANK        CLEAR     59  21  23 CALM      30.13F
ONTARIO        CLEAR     54  31  41 E3        30.15F
RIVERSIDE      CLEAR     59  28  30 NE6       30.15F
PALM SPRINGS   CLEAR     55  29  36 CALM      30.18S
EL CENTRO NAS  CLEAR     52  21  29 SW6       30.15F
IMPERIAL       CLEAR     49  30  48 SW6       30.15F
BLYTHE         CLEAR     57  15  19 VRB5      30.19S
NEEDLES        CLEAR     53  16  23 SW8       30.22F
$$

NVZ020-UTZ003-271000-
SOUTHERN NEVADA-UTAH

CITY           SKY/WX    TMP DP  RH WIND       PRES   REMARKS
LAS VEGAS      CLEAR     49  19  30 SW7       30.27S
SALT LAKE CITY PTCLDY    43  28  55 SE13      30.32F
$$

NMZ009-TXZ055-271000-
NEW MEXICO-WEST TEXAS

CITY           SKY/WX    TMP DP  RH WIND       PRES   REMARKS
ALBUQUERQUE    CLEAR     37  22  54 CALM      30.44R
EL PASO        CLEAR     40  19  43 N3        30.36R
$$


........................KEY........................
SKY/WX - SKY CONDITION/WEATHER
TMP    - TEMPERATURE IN FAHRENHEIT
DP     - DEW POINT IN FAHRENHEIT
RH     - RELATIVE HUMIDITY IN PERCENT
WIND   - DIRECTION AND SPEED IN MILES PER HOUR (MPH)
VRB    - VARIABLE WIND DIRECTION
PRES   - MEAN SEA LEVEL PRESSURE IN INCHES OF MERCURY
         F - FALLING PRESSURE   R - RISING PRESSURE
         S - STEADY PRESSURE
VSB    - VISIBILITY IN MILES
HX     - HEAT INDEX IN FAHRENHEIT
WCI    - WIND CHILL INDEX IN FAHRENHEIT
TC     - TEMPERATURE IN CELSIUS WHICH IS ALSO KNOWN AS
         TEMPERATURE IN CENTIGRADE
AFB    - AIR FORCE BASE
         LUKE AFB IS LUKE AIR FORCE BASE
         DAVIS-MONTHAN IS DAVIS-MONTHAN AIR FORCE BASE
NAS    - NAVAL AIR STATION
         EL CENTRO NAS IS EL CENTRO NAVAL AIR STATION
N/A    - NOT AVAILABLE



USA.gov is the U.S. government's official web portal to all federal, state and local government web resources and services.